Weather observations for the past three days for
Milford Municipal Airport
Imperial (Metric)
Date Time (mdt) Wind (mph) Vis. (mi.) Weather Sky Cond. Temperature (ºF) Relative Humidity Wind Chill (°F) Heat Index (°F) Pressure Precipitation (in)
Air Dwpt 6 hour altimeter (in) sea level (mb) 1 hr 3 hr 6 hr
Max. Min.
06 05:52 W 10 10.00 Fair CLR 43 39 51.1 42.1 86% 38 29.96 1010.8 0.03
06 04:52 SE 6 10.00 Mostly Cloudy FEW060 BKN080 44.1 39.9 85% 41 29.96 1010.6 0.03
06 03:52 N 14 7.00 Rain FEW041 BKN060 OVC070 48 32 54% 43 29.97 1010.9
06 02:52 S 8 10.00 A Few Clouds FEW120 45 28 52% 41 29.92 1009.3
06 01:52 SW 5 10.00 Fair CLR 44.1 27 51% 42 29.91 1009.0
06 00:52 Calm 10.00 Fair CLR 46.9 28.9 50% 29.9 1008.7
05 23:52 SE 3 10.00 Fair CLR 51.1 30 66 50 45% 29.88 1007.9
05 22:52 NW 8 10.00 Partly Cloudy SCT100 55.9 30 37% 29.87 1007.4
05 21:52 N 12 10.00 Overcast BKN090 OVC110 60.1 30 32% 29.86 1006.7
05 20:52 Calm 10.00 Overcast OVC095 61 23 23% 29.82 1005.9
05 19:52 SW 10 10.00 Overcast OVC095 62.1 24.1 23% 29.8 1005.7
05 18:52 NW 9 10.00 Overcast OVC100 64 21.9 20% 29.79 1005.5
05 17:52 N 20 G 26 10.00 Overcast OVC100 66 21.9 69.1 60.1 19% 29.77 1004.5
05 16:52 N 8 10.00 Partly Cloudy SCT095 SCT120 66.9 21 17% 29.77 1004.0
05 15:52 S 12 G 30 10.00 A Few Clouds FEW095 68 23 18% 29.78 1004.5
05 14:52 S 9 G 16 10.00 Fair CLR 66.9 21.9 18% 29.8 1005.1
05 13:52 S 9 G 16 10.00 Fair CLR 64.9 23 20% 29.82 1005.7
05 12:52 S 12 G 22 10.00 Fair CLR 62.1 24.1 23% 29.84 1007.1
05 11:52 S 21 G 28 10.00 Fair and Breezy CLR 61 26.1 61 39 26% 29.86 1007.5
05 10:52 S 18 10.00 Fair CLR 57.9 26.1 29% 29.86 1007.4
05 09:52 S 22 G 28 10.00 Fair and Breezy CLR 55.9 28 34% 29.86 1007.0
05 08:52 S 21 G 26 10.00 Fair and Breezy CLR 51.1 28 41% 29.86 1007.2
05 07:52 S 12 10.00 Fair CLR 45 25 46% 40 29.86 1007.4
05 06:52 SW 12 10.00 Fair CLR 39 23 53% 32 29.85 1007.3
05 05:52 SW 14 10.00 Fair CLR 39 23 46.9 39 53% 32 29.84 1006.9
05 04:52 S 13 10.00 Fair CLR 42.1 24.1 49% 36 29.84 1006.4
05 03:52 S 10 10.00 Fair CLR 43 23 45% 38 29.85 1006.5
05 02:52 S 16 10.00 Fair CLR 46 21.9 38% 40 29.85 1007.1
05 01:52 S 13 10.00 Fair CLR 46.9 21 36% 42 29.85 1007.0
05 00:52 S 8 10.00 Fair CLR 43 23 45% 39 29.85 1006.8
04 23:52 S 9 10.00 Fair CLR 46.9 24.1 70 46.9 41% 43 29.85 1006.4
04 22:52 S 10 10.00 A Few Clouds FEW120 51.1 23 33% 29.84 1005.8
04 21:52 S 12 10.00 Overcast OVC110 57.9 21 24% 29.83 1005.2
04 20:52 S 18 G 29 10.00 Light Rain FEW034 SCT120 59 30 33% 29.8 1004.3
04 19:52 SW 22 G 30 10.00 Fair and Breezy CLR 64 28 26% 29.77 1004.0
04 18:52 SW 24 G 36 10.00 Fair and Breezy CLR 66.9 28 23% 29.77 1003.6
04 17:52 SW 25 G 39 10.00 Fair and Breezy CLR 69.1 30 72 59 23% 29.77 1003.3 0.02
04 16:52 SW 23 G 37 10.00 A Few Clouds and Breezy FEW100 71.1 28.9 21% 29.75 1003.1
04 15:52 S 15 G 24 10.00 Mostly Cloudy BKN090 BKN110 70 34 27% 29.77 1003.7
04 14:52 Calm 10.00 Light Rain FEW060 BKN075 OVC095 64 37.9 38% 29.8 1005.0 0.02 0.02
04 13:52 S 21 G 31 10.00 Light Rain and Breezy SCT043 OVC085 64 41 43% 29.81 1004.8
04 12:52 SW 10 G 23 10.00 Fair CLR 71.1 30 22% 29.82 1004.2
04 11:52 S 17 G 24 10.00 Fair CLR 69.1 33.1 69.1 45 26% 29.85 1005.4
04 10:52 SW 17 G 30 10.00 Fair CLR 68 34 28% 29.86 1006.0
04 09:52 S 12 10.00 Fair CLR 64.9 34 32% 29.87 1005.8
04 08:52 S 12 10.00 Fair CLR 60.1 35.1 39% 29.88 1006.3
04 07:52 SE 8 10.00 Mostly Cloudy BKN100 50 35.1 57% 47 29.88 1007.0
04 06:52 SW 5 10.00 Fair CLR 48 32 54% 47 29.87 1006.5
04 05:52 S 12 10.00 Fair CLR 50 33.1 57.9 44.1 52% 46 29.87 1006.2
04 04:52 SW 3 10.00 Fair CLR 45 34 66% 29.87 1006.5
04 03:52 S 6 10.00 Fair CLR 48 36 63% 46 29.87 1006.4
04 02:52 S 5 10.00 Fair CLR 48.9 37 64% 48 29.88 1006.7
04 00:52 SW 5 10.00 A Few Clouds FEW120 57 37 47% 29.89 1006.4
03 23:52 SE 9 10.00 Overcast OVC100 57.9 39 75.9 55 50% 29.91 1007.3
03 22:52 SE 16 10.00 Light Rain SCT050 SCT060 OVC110 55 42.1 62% 29.93 1008.2
03 21:52 S 17 G 25 10.00 Mostly Cloudy BKN090 BKN110 66 30 26% 29.89 1006.6
03 20:52 S 25 G 36 10.00 Mostly Cloudy and Breezy BKN110 66.9 30 25% 29.86 1006.2
03 19:52 S 21 G 33 10.00 Fair and Breezy CLR 71.1 23 16% 29.82 1005.2
03 18:52 S 8 10.00 Fair CLR 75.9 17.1 11% 75 29.82 1005.3
03 17:52 S 14 G 21 10.00 Fair CLR 77 17.1 79 71.1 10% 76 29.84 1005.8
03 16:52 SW 17 G 30 10.00 Fair CLR 75.9 17.1 11% 75 29.85 1006.4
03 15:52 S 13 G 24 10.00 Fair CLR 78.1 17.1 10% 77 29.88 1006.8
03 14:52 SW 22 G 28 10.00 Fair and Breezy CLR 75.9 17.1 11% 75 29.91 1007.7
03 13:52 S 13 10.00 A Few Clouds FEW120 75 19 12% 75 29.94 1008.8
03 12:52 S 9 G 20 10.00 Fair CLR 73.9 19 12% 29.97 1009.7
03 11:52 S 9 10.00 A Few Clouds FEW120 71.1 12.9 73 37.9 10% 30 1011.1
03 10:52 S 10 10.00 Partly Cloudy SCT110 71.1 16 12% 30.02 1011.6
03 09:52 S 5 10.00 Fair CLR 63 19.9 19% 30.02 1011.6
03 08:52 S 9 10.00 Fair CLR 54 18 24% 30.04 1013.0
03 07:52 S 5 10.00 Fair CLR 46 16 30% 44 30.03 1012.8
03 06:52 S 6 10.00 Fair CLR 41 17.1 38% 38 30.03 1012.9
Date Time (mdt) Wind (mph) Vis. (mi.) Weather Sky Cond. Air Dwpt Max. Min. Relative Humidity Wind Chill (°F) Heat Index (°F) altimeter (in) sea level (mb) 1 hr 3 hr 6 hr
6 hour
Temperature (ºF) Pressure Precipitation (in)